Regional Weather Roundup
Issued by NWS

Home | Current Version | Previous Version | Text Only | Print | Product List | Glossary On
Versions: 1 2 3 4 5 6 7 8 9 10 11 12 13 14 15 16 17 18 19 20 21 22 23 24 25 26 27 28 29 30 31 32 33 34 35 36 37 38 39 40 41 42 43 44 45 46 47 48 49 50
000
ASUS43 KTOP 020208
RWRKS

WEATHER ROUNDUP FOR KANSAS
NATIONAL WEATHER SERVICE GOODLAND KS
900 PM CDT FRI AUG 01 2014

NOTE:  "FAIR" INDICATES FEW OR NO CLOUDS BELOW 12,000 FEET WITH NO
SIGNIFICANT WEATHER AND/OR OBSTRUCTIONS TO VISIBILITY.

KSZ001>006-013>018-027>032-041>047-020300-
NORTHWEST KANSAS

CITY           SKY/WX    TMP DP  RH WIND       PRES   REMARKS
GOODLAND       MOCLDY    73  53  49 S8        30.17S
HAYS           PTCLDY    79  52  38 E8        30.09R
HILL CITY      PTCLDY    78  52  40 E8        30.10R
RUSSELL        CLEAR     75  55  49 NE5       30.06S
$$

KSZ061>065-074>080-084>089-020300-
SOUTHWEST KANSAS

CITY           SKY/WX    TMP DP  RH WIND       PRES   REMARKS
DODGE CITY     PTCLDY    74  60  61 SE6       30.11R
ELKHART          N/A     74  58  57 E5          N/A
GARDEN CITY    CLOUDY    80  50  34 E7        30.13R
GREAT BEND       N/A     79  55  44 NE8       30.06R
LIBERAL        PTCLDY    81  52  36 E7        30.14R
PRATT          CLEAR     79  54  41 NE3       30.08R
$$

KSZ066>073-081>083-090>101-020300-
SOUTHEAST KANSAS

CITY           SKY/WX    TMP DP  RH WIND       PRES   REMARKS
CHANUTE        CLEAR     72  64  76 S5        30.04R
COFFEYVILLE    CLEAR     76  64  66 S5        30.03S
HUTCHINSON     CLEAR     75  53  46 N6        30.04R
MEDICINE LODGE   N/A     81  62  52 E6        30.03R
NEWTON         CLEAR     77  45  31 N5        30.06S
PARSONS        CLEAR     71  65  81 CALM      30.05R
WICHITA INTL   PTCLDY    79  65  62 S12       30.02R
WICHITA JABRA  CLEAR     78  66  66 S9        30.02R
WICHITA MCCONL CLEAR     76  68  77 S5        30.03R
WINFIELD       CLEAR     75  67  76 S8        30.04R
$$

KSZ007>012-019>026-033>040-048>060-102>105-020300-
NORTHEAST KANSAS

CITY           SKY/WX    TMP DP  RH WIND       PRES   REMARKS
CONCORDIA      CLEAR     75  63  66 N7        30.05R
EMPORIA        CLEAR     76  64  66 S10       30.03R
LAWRENCE       CLEAR     75  63  66 E8        30.04R
MANHATTAN      CLEAR     80  63  55 E8        30.00R
MARYSVILLE     CLEAR     77  63  61 E5        30.04R
OLATHE IND     CLEAR     76  63  64 E5        30.06R
OLATHE EXE     CLEAR     76  62  62 SE5       30.05R
SALINA         CLEAR     80  57  45 N8        30.03R
TOPEKA BILLARD PTCLDY    79  64  60 E6        30.03R
TOPEKA FORBES  PTCLDY    79  61  53 E7        30.03R
$$



USA.gov is the U.S. government's official web portal to all federal, state and local government web resources and services.